FW8448 Weather Reports


Display with metric or nautical units.
time (UTC)temp
F
wind
direction
speed
MPH
gust
MPH
rain 1hr
in
rain 24hr
in
rain mn
in
humidity
%
barometer
mb
20260906074605 65 42 1.0 6.0 0.00 0.34 0.00 90 1015.4
20260906073057 65 40 2.0 6.0 0.00 0.34 0.00 90 1015.3
20260906071558 65 51 1.0 5.0 0.00 0.34 0.00 90 1015.3
20260906070101 66 51 2.0 7.0 0.00 0.34 0.00 90 1015.3
20260906064558 66 46 1.0 5.0 0.00 0.34 0.00 90 1015.3
20260906063100 67 79 2.0 6.0 0.00 0.34 0.00 90 1015.3
20260906061600 68 62 2.0 9.0 0.00 0.34 0.00 91 1015.3
20260906060058 69 15 4.0 9.0 0.00 0.34 0.00 93 1015.2
20260906054559 69 60 4.0 9.0 0.00 0.34 0.00 95 1015.1
20260906053109 70 48 1.0 7.0 0.00 0.34 0.00 95 1014.9
20260906051601 70 42 1.0 6.0 0.00 0.34 0.00 95 1014.9
20260906050057 71 69 2.0 8.0 0.00 0.34 0.00 95 1014.9
20260906044558 71 73 1.0 5.0 0.00 0.34 0.00 95 1014.7
20260906043102 71 60 3.0 9.0 0.00 0.34 0.00 96 1014.4
20260906041606 72 59 3.0 9.0 0.00 0.34 0.00 96 1014.3
20260906040112 72 57 2.0 6.0 0.00 0.34 0.00 96 1014.4
20260906034607 72 56 1.0 4.0 0.00 0.34 0.34 96 1014.3
20260906033111 72 56 1.0 5.0 0.00 0.34 0.34 96 1014.3
20260906031603 72 0 2.0 5.0 0.00 0.34 0.34 96 1014.3
20260906024600 73 49 3.0 8.0 0.00 0.34 0.34 96 1014.3
20260906023100 73 36 3.0 9.0 0.00 0.34 0.34 96 1014.3
20260906021605 73 67 2.0 6.0 0.00 0.34 0.34 96 1014.2
20260906020107 73 58 3.0 6.0 0.00 0.34 0.34 97 1014.0
20260906014604 72 59 1.0 5.0 0.00 0.34 0.34 97 1013.8
20260906013110 71 0 0.0 0.0 0.00 0.34 0.34 97 1013.7
20260906011607 70 0 0.0 0.0 0.00 0.34 0.34 97 1013.4
20260906004611 70 0 0.0 0.0 0.00 0.34 0.34 96 1013.1
20260906003106 71 0 0.0 0.0 0.00 0.34 0.34 96 1012.8
20260906001602 71 0 0.0 0.0 0.00 0.34 0.34 96 1012.6
20260905234604 71 0 0.0 1.0 0.06 0.34 0.34 96 1012.6
20260905233103 71 221 0.0 0.0 0.30 0.34 0.34 96 1012.4
20260905231600 71 0 0.0 3.0 0.34 0.34 0.34 95 1012.5
20260905224603 72 280 4.0 13.0 0.28 0.28 0.28 92 1014.2
20260905223100 77 79 1.0 9.0 0.03 0.03 0.03 86 1013.3
20260905221554 82 51 1.0 11.0 0.00 0.00 0.00 82 1012.7
20260905220106 85 59 2.0 8.0 0.00 0.00 0.00 78 1012.0
20260905214606 87 0 0.0 3.0 0.00 0.00 0.00 76 1011.9
20260905213111 88 0 0.0 4.0 0.00 0.00 0.00 74 1012.2
20260905211600 90 0 2.0 8.0 0.00 0.00 0.00 71 1011.7
20260905210123 91 281 2.0 8.0 0.00 0.00 0.00 68 1012.0
20260905204604 91 0 0.0 2.0 0.00 0.00 0.00 70 1012.3
20260905203058 90 268 4.0 9.0 0.00 0.00 0.00 68 1012.4
20260905201557 90 278 0.0 2.0 0.00 0.00 0.00 69 1012.5
20260905194610 90 279 1.0 6.0 0.00 0.00 0.00 69 1012.9
20260905193056 90 269 2.0 9.0 0.00 0.00 0.00 69 1013.0
20260905191609 89 271 1.0 9.0 0.00 0.00 0.00 72 1013.2
20260905190117 88 292 3.0 8.0 0.00 0.00 0.00 73 1013.5
20260905184623 88 0 0.0 0.0 0.00 0.00 0.00 71 1013.7
20260905183104 88 0 0.0 7.0 0.00 0.00 0.00 71 1014.0
20260905181559 87 273 3.0 10.0 0.00 0.00 0.00 71 1013.9
20260905180108 85 289 9.0 13.0 0.00 0.00 0.00 70 1014.0
20260905174603 85 271 4.0 10.0 0.00 0.00 0.00 74 1014.0
20260905173116 84 273 5.0 13.0 0.00 0.00 0.00 73 1014.0
20260905171605 83 279 6.0 10.0 0.00 0.00 0.00 73 1014.2
20260905170101 82 267 4.0 10.0 0.00 0.00 0.00 78 1014.5
20260905164603 82 254 1.0 6.0 0.00 0.00 0.00 75 1015.0
20260905163110 84 243 5.0 9.0 0.00 0.00 0.00 72 1015.0
20260905161603 83 283 2.0 7.0 0.00 0.00 0.00 76 1015.2
20260905160059 83 198 4.0 11.0 0.00 0.00 0.00 77 1015.1
20260905154616 82 213 2.0 8.0 0.00 0.00 0.00 76 1015.0
20260905153107 81 157 1.0 8.0 0.00 0.00 0.00 79 1015.0
20260905151613 80 236 2.0 5.0 0.00 0.00 0.00 78 1014.6
20260905150059 79 223 2.0 7.0 0.00 0.00 0.00 78 1014.5
20260905144559 78 245 1.0 6.0 0.00 0.00 0.00 83 1014.6
20260905143100 78 0 0.0 0.0 0.00 0.00 0.00 82 1014.7
20260905141602 76 0 0.0 0.0 0.00 0.00 0.00 82 1014.9
20260905140059 75 0 0.0 6.0 0.00 0.00 0.00 84 1015.0
20260905134559 74 187 1.0 7.0 0.00 0.00 0.00 86 1015.2
20260905133103 74 0 2.0 6.0 0.00 0.00 0.00 86 1015.4
20260905131603 73 110 0.0 6.0 0.00 0.00 0.00 87 1015.4
20260905130059 72 180 2.0 10.0 0.00 0.00 0.00 87 1015.5
20260905124601 71 63 1.0 7.0 0.00 0.00 0.00 88 1015.6
20260905123104 69 0 0.0 2.0 0.00 0.00 0.00 90 1015.4
20260905121602 69 62 2.0 5.0 0.00 0.00 0.00 90 1015.1
20260905120057 70 79 2.0 9.0 0.00 0.00 0.00 89 1015.0
20260905114557 69 80 1.0 6.0 0.00 0.00 0.00 89 1015.3
20260905113101 69 38 0.0 5.0 0.00 0.00 0.00 90 1015.3
20260905111645 70 109 1.0 7.0 0.00 0.00 0.00 89 1015.1
20260905110057 70 94 2.0 11.0 0.00 0.00 0.00 89 1015.2
20260905104604 70 88 4.0 12.0 0.00 0.00 0.00 89 1015.6
20260905103104 70 69 5.0 12.0 0.00 0.00 0.00 89 1015.6
20260905101605 71 81 6.0 13.0 0.00 0.00 0.00 88 1015.7
20260905100106 71 51 6.0 18.0 0.00 0.00 0.00 87 1015.7
20260905094601 71 150 9.0 21.0 0.00 0.00 0.00 87 1015.5
20260905093100 71 61 10.0 20.0 0.00 0.00 0.00 94 1015.5
20260905091601 71 0 0.0 0.0 0.00 0.00 0.00 97 1014.1
20260905090058 71 0 0.0 0.0 0.00 0.00 0.00 97 1014.1
20260905084605 71 0 0.0 0.0 0.00 0.00 0.00 96 1014.0
20260905083053 72 0 0.0 0.0 0.00 0.00 0.00 97 1013.8
20260905081558 72 0 0.0 1.0 0.00 0.00 0.00 97 1013.8
20260905080110 72 0 0.0 0.0 0.00 0.00 0.00 97 1013.7